Regional Weather Roundup
Issued by NWS San Diego, CA

Home | Current Version | Previous Version | Text Only | Print | Product List | Glossary On
Versions: 1 2 3 4 5 6 7 8 9 10 11 12 13 14 15 16 17 18 19 20 21 22 23 24 25 26 27 28 29 30 31 32 33 34 35 36 37 38 39 40 41 42 43 44 45 46 47 48 49 50
000
ASUS46 KSGX 290710
RWRSGX

SAN DIEGO HOURLY WEATHER ROUNDUP
NATIONAL WEATHER SERVICE SAN DIEGO CA
1100 PM PST WED JAN 28 2015

NOTE: "FAIR" INDICATES FEW OR NO CLOUDS BELOW 12,000 FEET WITH NO
SIGNIFICANT WEATHER AND/OR OBSTRUCTIONS TO VISIBILITY.

CAZ042-043-060-061-PZZ750-775-290800-

GREATER SAN DIEGO AREA

CITY           SKY/WX    TMP DP  RH WIND       PRES   REMARKS
LINDBERGH FLD  CLOUDY    63  54  72 NW3       30.09S
NATIONAL CITY    N/A     62  56  81 CALM      30.08S
CHULA VISTA      N/A     60  54  79 CALM      30.01
IMPERIAL BEACH CLOUDY    61  55  81 NW5       30.08S
BROWN FIELD    CLOUDY    63  46  54 NE3       30.07F
MIRAMAR MCAS   CLOUDY    59  49  69 CALM      30.08S
MONTGOMERY FLD CLOUDY    62  50  64 CALM      30.09R

$$

NORTH SAN DIEGO COUNTY

CITY           SKY/WX    TMP DP  RH WIND       PRES   REMARKS
CAMP PENDLETON CLOUDY    57  51  80 CALM      30.08R
OCEANSIDE AP   CLOUDY    58  52  80 CALM      30.07R
OCEANSIDE HBR    N/A     61  55  81 S2        30.10S
VISTA            N/A     60  50  69 CALM      30.06S
CARLSBAD       CLOUDY    61  52  72 S3        30.08R
DEL MAR          N/A     59  55  85 CALM      30.11R
LA JOLLA SCRIP   N/A     61  56  83 CALM      30.06S
FALLBROOK        N/A     64  49  57 W7        30.09
ESCONDIDO        N/A     60  51  71 CALM      30.10R
SAN MARCOS       N/A     63  51  66 CALM      30.07R
POWAY            N/A     58  51  78 CALM      30.11R

$$

EAST SAN DIEGO COUNTY

CITY           SKY/WX    TMP DP  RH WIND       PRES   REMARKS
RAMONA         CLOUDY    54  45  71 S3        30.10S
SANTEE LAKES     N/A     59  53  81 CALM      30.10S
LA MESA          N/A     62  51  66 CALM      30.03S
JAMUL            N/A     59  46  62 CALM      30.08F
DESCANSO N       N/A     57  37  47 E7        30.01
MT. LAGUNA OBS   N/A     42  31  62 E7        29.77
CAMPO            N/A     56  41  57 NE3       30.10S

$$

ORANGE COUNTY AND THE LOS ANGELES BASIN

CITY           SKY/WX    TMP DP  RH WIND       PRES   REMARKS
JOHN WAYNE AP  CLOUDY    65  54  67 CALM      30.07F
LAGUNA BEACH     N/A     59  52  78 CALM      30.02F
LAKE FOREST FR   N/A     64  40  42 CALM      29.97F
SANTA ANA        N/A     61  55  79 CALM      30.02F
HUNTINGTON BCH   N/A     59  56  92 CALM      30.09S
LOS ALAMITOS   FAIR      62  54  73 NW5       30.07F
FULLERTON      CLOUDY    65  47  52 CALM      30.06F
LONG BEACH     CLOUDY    63  53  70 NW5       30.07F
L.A. AP        CLOUDY    66  48  52 VRB6      30.07F
L.A. DOWNTOWN  CLOUDY    65  48  54 CALM      30.07F

$$

THE INLAND EMPIRE

CITY           SKY/WX    TMP DP  RH WIND       PRES   REMARKS
CORONA         CLOUDY    66  44  45 SE7       30.09F
CHINO          CLOUDY    63  45  51 SE7       30.10F
ONTARIO        CLOUDY    60  47  61 NW6       30.09F
RIVERSIDE AP   CLOUDY    64  44  48 E7        30.10F
RIV CYN CREST    N/A     61  54  76 CALM        N/A
MORENO VALLEY    N/A     58  50  74 CALM      29.30
MARCH ARB      CLOUDY    56  48  74 NW7       30.11S
HORSETHIEF CYN   N/A     60  43  53 W2        30.06
PERRIS           N/A     60  48  64 CALM        N/A
MENIFEE          N/A     58  51  77 NW2       30.19
HEMET EAST       N/A     58  33  39 CALM      30.11
FRENCH VALLEY  FAIR      55  46  71 E6        30.11S
TEMECULA         N/A     60  49  68 CALM      30.07

$$

SAN BERNARDINO AND RIVERSIDE COUNTY MOUNTAINS

CITY           SKY/WX    TMP DP  RH WIND       PRES   REMARKS
BIG BEAR AP    CLOUDY    32  30  93 CALM      30.27S
PINE COVE        N/A     50  10  20 S2        30.14F

$$

SOUTHERN DESERT INCLUDING THE COACHELLA VALLEY

CITY           SKY/WX    TMP DP  RH WIND       PRES   REMARKS
PALM SPRINGS   CLOUDY    64  49  57 CALM      30.13S
PALM DESERT      N/A     64  51  63 CALM      27.49S
THERMAL        CLOUDY    61  50  67 N6        30.09S
BLYTHE         CLOUDY    61  52  72 NW5       30.11F
IMPERIAL AP    CLOUDY    60  52  74 SW5       30.10S
EL CENTRO NAS  CLOUDY    61  51  70 SW6       30.10S
YUMA AZ        CLOUDY    63  50  62 N5        30.08F

$$

UPPER DESERT

CITY           SKY/WX    TMP DP  RH WIND       PRES   REMARKS
VICTORVILLE AP CLOUDY    48  45  87 N5        30.20F
APPLE VALLEY     N/A     49  41  73 CALM      30.23R
PALMDALE       CLOUDY    50  46  86 NW5       30.21F
LANCASTER      CLOUDY    51  46  83 CALM      30.22S
EDWARDS AFB    CLOUDY    52  49  89 N2        30.19S
DAGGETT        CLOUDY    53  48  83 W3        30.19F
29 PALMS N     CLOUDY    55  45  68 NW8       30.24F
NEEDLES        CLOUDY    61  50  67 W5        30.13F

$$

REGIONAL REPORTS

CITY           SKY/WX    TMP DP  RH WIND       PRES   REMARKS
SANTA BARBARA  CLOUDY    58  52  80 CALM      30.08F
SANDBERG       CLOUDY    50  41  71 E18       30.22F
MT. WILSON       N/A    N/A N/A N/A MISG        N/A
LAS VEGAS NV   CLOUDY    57  46  66 S8        30.16S
PHOENIX AZ     CLOUDY    64  51  62 CALM      30.07S
TIJUANA        CLOUDY    63  43  48 CALM      30.09

$$

OFFSHORE ISLANDS

CITY           SKY/WX    TMP DP  RH WIND       PRES   REMARKS
CATALINA ARPT  CLOUDY    63  39  41 NE8       30.11F
SAN NICOLAS IS CLOUDY   N/A N/A N/A NW7       30.08S

$$

MARINE AND OFFSHORE BUOY REPORTS

STATION/POSITION SKY/WX   TEMP    WIND        PRES    SWELL
                          AIR SEA DIR/SP/G            HT/PER/DIR
                          (F)     (DEG/KT/KT) (MB)    (FT/S/D)
TANNER BANKS               61 62  310/  6/  6 1018.9R   5/280/14
S CLEMENTE BASIN           63 62  330/  6/  6 1018.4F   5/290/14
SAN NICOLAS IS.               62                N/A     5/290/13
SO. S. ROSA ISLA           61 61  340/  8/ 10 1018.3F   5/12
W. S. BARBARA CH           61 60  330/  6/  8 1018.5F   5/270/13
S. MONICA BASIN            63 62  350/  4/  6 1018.6F   3/250/14
S PEDRO CHANNEL               62                N/A     3/270/13
DANA POINT                    62                N/A     2/280/14
CMP PENDLETON NS              62                N/A     2/240/14
OCEANSIDE OFFSHR              62                N/A     3/260/13
TORREY PINES OTR              62                N/A     3/280/14
LA JOLLA 1                 61 62   CALM  /  1 1018.8R
MISSION BAY BUOY              62                N/A     3/260/13
SAN DIEGO BAY                 62              1019.1S
POINT LOMA SOUTH              62                N/A     3/260/13

$$




USA.gov is the U.S. government's official web portal to all federal, state and local government web resources and services.